| time (UTC) | temp F | wind direction | speed MPH | gust MPH | rain 1hr in | rain 24hr in | rain mn in | humidity % | barometer mb |
| 20260506062434 | 69 | 358 | 1.0 | 2.0 | 0.00 | 0.00 | 0.00 | 81 | 1031.7 |
| 20260506061930 | 69 | 336 | 0.0 | 2.0 | 0.00 | 0.00 | 0.00 | 81 | 1031.9 |
| 20260506061427 | 69 | 350 | 1.0 | 2.0 | 0.00 | 0.00 | 0.00 | 80 | 1031.9 |
| 20260506060925 | 69 | 11 | 0.0 | 1.0 | 0.00 | 0.00 | 0.00 | 81 | 1031.9 |
| 20260506060423 | 69 | 352 | 1.0 | 1.0 | 0.00 | 0.00 | 0.00 | 80 | 1032.0 |
| 20260506051354 | 69 | 1 | 2.0 | 2.0 | 0.00 | 0.00 | 0.00 | 79 | 1031.9 |
| 20260506050852 | 69 | 359 | 2.0 | 3.0 | 0.00 | 0.00 | 0.00 | 78 | 1032.0 |
| 20260506050349 | 69 | 10 | 1.0 | 2.0 | 0.00 | 0.00 | 0.00 | 78 | 1031.9 |
| 20260506044839 | 69 | 356 | 2.0 | 2.0 | 0.00 | 0.00 | 0.00 | 78 | 1031.8 |
| 20260506044338 | 70 | 356 | 2.0 | 2.0 | 0.00 | 0.00 | 0.00 | 77 | 1031.7 |
| 20260506043834 | 70 | 344 | 1.0 | 1.0 | 0.00 | 0.00 | 0.00 | 77 | 1031.7 |
| 20260506043331 | 70 | 4 | 2.0 | 3.0 | 0.00 | 0.00 | 0.00 | 77 | 1031.8 |
| 20260506042830 | 70 | 8 | 1.0 | 2.0 | 0.00 | 0.00 | 0.00 | 78 | 1031.4 |
| 20260506042328 | 70 | 12 | 0.0 | 1.0 | 0.00 | 0.00 | 0.00 | 77 | 1031.5 |
| 20260506041827 | 70 | 7 | 0.0 | 1.0 | 0.00 | 0.00 | 0.00 | 77 | 1031.8 |
| 20260506041323 | 70 | 14 | 1.0 | 2.0 | 0.00 | 0.00 | 0.00 | 77 | 1031.7 |
| 20260506040821 | 70 | 358 | 2.0 | 2.0 | 0.00 | 0.00 | 0.00 | 77 | 1031.9 |
| 20260506040318 | 70 | 17 | 0.0 | 0.0 | 0.00 | 0.00 | 0.00 | 77 | 1031.7 |
| 20260506035814 | 70 | 12 | 1.0 | 2.0 | 0.00 | 0.00 | 0.00 | 76 | 1031.6 |
| 20260506035312 | 70 | 340 | 2.0 | 2.0 | 0.00 | 0.00 | 0.00 | 76 | 1031.8 |
| 20260506034809 | 71 | 358 | 3.0 | 3.0 | 0.00 | 0.00 | 0.00 | 75 | 1031.9 |
| 20260506034306 | 71 | 1 | 3.0 | 3.0 | 0.00 | 0.00 | 0.00 | 75 | 1031.9 |
| 20260506033803 | 71 | 15 | 1.0 | 2.0 | 0.00 | 0.00 | 0.00 | 75 | 1031.5 |
| 20260506033300 | 71 | 15 | 2.0 | 2.0 | 0.00 | 0.00 | 0.00 | 75 | 1031.9 |
| 20260506032756 | 71 | 8 | 1.0 | 2.0 | 0.00 | 0.00 | 0.00 | 74 | 1031.8 |
| 20260506032253 | 71 | 3 | 2.0 | 3.0 | 0.00 | 0.00 | 0.00 | 74 | 1031.8 |
| 20260506031750 | 71 | 4 | 2.0 | 3.0 | 0.00 | 0.00 | 0.00 | 73 | 1031.8 |
| 20260506031247 | 71 | 358 | 1.0 | 1.0 | 0.00 | 0.00 | 0.00 | 73 | 1031.6 |
| 20260506030745 | 70 | 8 | 2.0 | 2.0 | 0.00 | 0.00 | 0.00 | 73 | 1031.4 |
| 20260506030243 | 70 | 17 | 0.0 | 0.0 | 0.00 | 0.00 | 0.00 | 73 | 1031.6 |
| 20260506025740 | 71 | 14 | 1.0 | 1.0 | 0.00 | 0.00 | 0.00 | 72 | 1031.6 |
| 20260506025236 | 71 | 16 | 0.0 | 1.0 | 0.00 | 0.00 | 0.00 | 72 | 1031.6 |
| 20260506024733 | 71 | 12 | 2.0 | 2.0 | 0.00 | 0.00 | 0.00 | 71 | 1031.4 |
| 20260506024230 | 71 | 15 | 0.0 | 0.0 | 0.00 | 0.00 | 0.00 | 71 | 1031.5 |
| 20260506023726 | 71 | 13 | 0.0 | 0.0 | 0.00 | 0.00 | 0.00 | 71 | 1031.6 |
| 20260506023223 | 70 | 17 | 0.0 | 0.0 | 0.00 | 0.00 | 0.00 | 71 | 1031.3 |
| 20260506022720 | 70 | 16 | 0.0 | 0.0 | 0.00 | 0.00 | 0.00 | 71 | 1031.5 |
| 20260506022218 | 70 | 15 | 0.0 | 0.0 | 0.00 | 0.00 | 0.00 | 70 | 1031.3 |
| 20260506021715 | 71 | 16 | 0.0 | 0.0 | 0.00 | 0.00 | 0.00 | 70 | 1031.1 |
| 20260506021212 | 71 | 8 | 0.0 | 0.0 | 0.00 | 0.00 | 0.00 | 70 | 1031.4 |
| 20260506020709 | 71 | 2 | 0.0 | 0.0 | 0.00 | 0.00 | 0.00 | 69 | 1031.5 |
| 20260506020207 | 71 | 1 | 0.0 | 0.0 | 0.00 | 0.00 | 0.00 | 69 | 1031.2 |
| 20260506015704 | 71 | 356 | 0.0 | 0.0 | 0.00 | 0.00 | 0.00 | 69 | 1031.3 |
| 20260506015202 | 71 | 359 | 0.0 | 0.0 | 0.00 | 0.00 | 0.00 | 69 | 1031.3 |
| 20260506014658 | 71 | 359 | 0.0 | 0.0 | 0.00 | 0.00 | 0.00 | 69 | 1031.2 |
| 20260506014154 | 71 | 359 | 0.0 | 0.0 | 0.00 | 0.00 | 0.00 | 69 | 1031.3 |
| 20260506013652 | 71 | 359 | 0.0 | 0.0 | 0.00 | 0.00 | 0.00 | 69 | 1031.3 |
| 20260506013149 | 71 | 359 | 0.0 | 0.0 | 0.00 | 0.00 | 0.00 | 69 | 1031.1 |
| 20260506012645 | 71 | 359 | 0.0 | 0.0 | 0.00 | 0.00 | 0.00 | 69 | 1031.3 |
| 20260506012142 | 71 | 359 | 0.0 | 0.0 | 0.00 | 0.00 | 0.00 | 69 | 1031.2 |
| 20260506011640 | 71 | 0 | 0.0 | 0.0 | 0.00 | 0.00 | 0.00 | 68 | 1031.7 |
| 20260506011136 | 71 | 0 | 0.0 | 0.0 | 0.00 | 0.00 | 0.00 | 68 | 1031.5 |
| 20260506010634 | 72 | 0 | 0.0 | 0.0 | 0.00 | 0.00 | 0.00 | 68 | 1031.2 |
| 20260506010131 | 72 | 0 | 0.0 | 0.0 | 0.00 | 0.00 | 0.00 | 68 | 1031.0 |
| 20260506005622 | 72 | 0 | 0.0 | 0.0 | 0.00 | 0.00 | 0.00 | 67 | 1031.2 |
| 20260506005119 | 72 | 0 | 0.0 | 0.0 | 0.00 | 0.00 | 0.00 | 66 | 1031.2 |
| 20260506004616 | 72 | 0 | 0.0 | 0.0 | 0.00 | 0.00 | 0.00 | 66 | 1031.1 |
| 20260506004113 | 72 | 0 | 0.0 | 0.0 | 0.00 | 0.00 | 0.00 | 67 | 1031.1 |
| 20260506003609 | 73 | 0 | 0.0 | 0.0 | 0.00 | 0.00 | 0.00 | 66 | 1030.7 |
| 20260506003105 | 73 | 1 | 0.0 | 0.0 | 0.00 | 0.00 | 0.00 | 65 | 1030.9 |
| 20260506002601 | 73 | 4 | 0.0 | 0.0 | 0.00 | 0.00 | 0.00 | 66 | 1031.1 |
| 20260506002057 | 73 | 353 | 0.0 | 0.0 | 0.00 | 0.00 | 0.00 | 65 | 1031.0 |
| 20260506001553 | 73 | 356 | 0.0 | 0.0 | 0.00 | 0.00 | 0.00 | 65 | 1031.2 |
| 20260506001051 | 73 | 353 | 0.0 | 0.0 | 0.00 | 0.00 | 0.00 | 65 | 1031.3 |
| 20260506000548 | 73 | 354 | 0.0 | 0.0 | 0.00 | 0.00 | 0.00 | 65 | 1031.4 |
| 20260506000045 | 74 | 2 | 0.0 | 0.0 | 0.00 | 0.00 | 0.00 | 65 | 1031.5 |
| 20260505235543 | 74 | 358 | 0.0 | 0.0 | 0.00 | 0.00 | 0.00 | 63 | 1031.3 |
| 20260505235040 | 74 | 2 | 0.0 | 0.0 | 0.00 | 0.00 | 0.00 | 63 | 1031.5 |
| 20260505234537 | 74 | 350 | 0.0 | 0.0 | 0.00 | 0.00 | 0.00 | 63 | 1031.3 |
| 20260505234034 | 74 | 344 | 0.0 | 0.0 | 0.00 | 0.00 | 0.00 | 64 | 1031.2 |
| 20260505233531 | 74 | 345 | 0.0 | 0.0 | 0.00 | 0.00 | 0.00 | 64 | 1031.2 |
| 20260505233029 | 74 | 345 | 0.0 | 0.0 | 0.00 | 0.00 | 0.00 | 63 | 1031.5 |
| 20260505232526 | 74 | 350 | 0.0 | 0.0 | 0.00 | 0.00 | 0.00 | 62 | 1031.7 |
| 20260505232023 | 74 | 353 | 0.0 | 0.0 | 0.00 | 0.00 | 0.00 | 63 | 1031.7 |
| 20260505231520 | 74 | 355 | 0.0 | 0.0 | 0.00 | 0.00 | 0.00 | 63 | 1031.6 |
| 20260505231013 | 74 | 353 | 1.0 | 1.0 | 0.00 | 0.00 | 0.00 | 62 | 1031.7 |
| 20260505230510 | 74 | 12 | 0.0 | 0.0 | 0.00 | 0.00 | 0.00 | 64 | 1031.8 |
| 20260505230007 | 74 | 351 | 1.0 | 1.0 | 0.00 | 0.00 | 0.00 | 63 | 1031.7 |
| 20260505225504 | 74 | 6 | 0.0 | 0.0 | 0.00 | 0.00 | 0.00 | 63 | 1031.8 |
| 20260505224959 | 75 | 353 | 1.0 | 2.0 | 0.00 | 0.00 | 0.00 | 62 | 1032.0 |
| 20260505224456 | 75 | 355 | 2.0 | 2.0 | 0.00 | 0.00 | 0.00 | 61 | 1031.9 |
| 20260505223954 | 74 | 0 | 1.0 | 1.0 | 0.00 | 0.00 | 0.00 | 62 | 1031.8 |
| 20260505223450 | 74 | 14 | 1.0 | 1.0 | 0.00 | 0.00 | 0.00 | 62 | 1032.0 |
| 20260505222947 | 74 | 9 | 0.0 | 0.0 | 0.00 | 0.00 | 0.00 | 62 | 1031.8 |
| 20260505222443 | 74 | 10 | 1.0 | 2.0 | 0.00 | 0.00 | 0.00 | 62 | 1031.7 |
| 20260505221939 | 75 | 354 | 0.0 | 0.0 | 0.00 | 0.00 | 0.00 | 63 | 1031.7 |
| 20260505221437 | 75 | 317 | 3.0 | 3.0 | 0.00 | 0.00 | 0.00 | 64 | 1031.8 |
| 20260505220934 | 75 | 8 | 0.0 | 0.0 | 0.00 | 0.00 | 0.00 | 63 | 1031.7 |
| 20260505220430 | 74 | 316 | 3.0 | 4.0 | 0.00 | 0.00 | 0.00 | 63 | 1031.3 |
| 20260505215927 | 74 | 8 | 0.0 | 0.0 | 0.00 | 0.00 | 0.00 | 62 | 1031.7 |
| 20260505215425 | 74 | 1 | 2.0 | 2.0 | 0.00 | 0.00 | 0.00 | 64 | 1031.8 |
| 20260505214924 | 75 | 18 | 1.0 | 1.0 | 0.00 | 0.00 | 0.00 | 65 | 1031.8 |
| 20260505214421 | 75 | 4 | 1.0 | 1.0 | 0.00 | 0.00 | 0.00 | 63 | 1031.9 |
| 20260505213918 | 75 | 359 | 0.0 | 0.0 | 0.00 | 0.00 | 0.00 | 61 | 1031.8 |
| 20260505213416 | 75 | 17 | 1.0 | 2.0 | 0.00 | 0.00 | 0.00 | 61 | 1031.9 |
| 20260505212912 | 75 | 13 | 2.0 | 2.0 | 0.00 | 0.00 | 0.00 | 66 | 1031.9 |
| 20260505212409 | 75 | 355 | 1.0 | 1.0 | 0.00 | 0.00 | 0.00 | 64 | 1032.0 |
| 20260505211905 | 75 | 343 | 1.0 | 2.0 | 0.00 | 0.00 | 0.00 | 64 | 1031.7 |
| 20260505211403 | 76 | 8 | 1.0 | 2.0 | 0.00 | 0.00 | 0.00 | 62 | 1031.7 |
| 20260505210859 | 76 | 313 | 2.0 | 3.0 | 0.00 | 0.00 | 0.00 | 61 | 1031.8 |
| 20260505210356 | 76 | 355 | 0.0 | 0.0 | 0.00 | 0.00 | 0.00 | 60 | 1031.8 |
| 20260505205853 | 75 | 344 | 1.0 | 2.0 | 0.00 | 0.00 | 0.00 | 66 | 1031.7 |
| 20260505205351 | 75 | 22 | 1.0 | 1.0 | 0.00 | 0.00 | 0.00 | 64 | 1031.6 |
| 20260505204848 | 76 | 1 | 1.0 | 2.0 | 0.00 | 0.00 | 0.00 | 61 | 1031.9 |
| 20260505204346 | 76 | 339 | 2.0 | 2.0 | 0.00 | 0.00 | 0.00 | 60 | 1031.9 |
| 20260505203843 | 76 | 354 | 2.0 | 3.0 | 0.00 | 0.00 | 0.00 | 64 | 1031.8 |
| 20260505203339 | 75 | 15 | 0.0 | 0.0 | 0.00 | 0.00 | 0.00 | 61 | 1032.0 |
| 20260505202836 | 75 | 3 | 3.0 | 3.0 | 0.00 | 0.00 | 0.00 | 60 | 1031.8 |
| 20260505202332 | 75 | 12 | 1.0 | 2.0 | 0.00 | 0.00 | 0.00 | 65 | 1032.0 |
| 20260505201829 | 75 | 23 | 1.0 | 1.0 | 0.00 | 0.00 | 0.00 | 64 | 1032.0 |
| 20260505201326 | 75 | 358 | 0.0 | 0.0 | 0.00 | 0.00 | 0.00 | 64 | 1031.9 |
| 20260505200825 | 75 | 15 | 0.0 | 0.0 | 0.00 | 0.00 | 0.00 | 64 | 1032.5 |
| 20260505200321 | 75 | 2 | 1.0 | 2.0 | 0.00 | 0.00 | 0.00 | 63 | 1032.4 |
| 20260505195816 | 76 | 348 | 1.0 | 2.0 | 0.00 | 0.00 | 0.00 | 60 | 1032.8 |
| 20260505195314 | 75 | 31 | 2.0 | 2.0 | 0.00 | 0.00 | 0.00 | 62 | 1032.4 |
| 20260505194811 | 76 | 9 | 0.0 | 0.0 | 0.00 | 0.00 | 0.00 | 61 | 1032.8 |
| 20260505194308 | 75 | 6 | 0.0 | 0.0 | 0.00 | 0.00 | 0.00 | 58 | 1032.7 |
| 20260505193803 | 75 | 28 | 0.0 | 0.0 | 0.00 | 0.00 | 0.00 | 64 | 1032.6 |
| 20260505193301 | 74 | 344 | 1.0 | 1.0 | 0.00 | 0.00 | 0.00 | 64 | 1032.6 |
| 20260505192759 | 75 | 19 | 1.0 | 2.0 | 0.00 | 0.00 | 0.00 | 62 | 1032.8 |
| 20260505192257 | 76 | 13 | 3.0 | 3.0 | 0.00 | 0.00 | 0.00 | 62 | 1032.6 |
| 20260505191754 | 74 | 350 | 0.0 | 1.0 | 0.00 | 0.00 | 0.00 | 63 | 1032.6 |
| 20260505191253 | 74 | 15 | 2.0 | 2.0 | 0.00 | 0.00 | 0.00 | 61 | 1033.0 |
| 20260505190749 | 75 | 335 | 0.0 | 1.0 | 0.00 | 0.00 | 0.00 | 63 | 1033.1 |
| 20260505190244 | 75 | 344 | 2.0 | 2.0 | 0.00 | 0.00 | 0.00 | 58 | 1033.1 |
| 20260505185740 | 77 | 335 | 2.0 | 2.0 | 0.00 | 0.00 | 0.00 | 58 | 1033.1 |
| 20260505185237 | 76 | 343 | 0.0 | 0.0 | 0.00 | 0.00 | 0.00 | 63 | 1033.4 |
| 20260505184733 | 75 | 20 | 0.0 | 0.0 | 0.00 | 0.00 | 0.00 | 60 | 1033.3 |
| 20260505184231 | 74 | 21 | 0.0 | 1.0 | 0.00 | 0.00 | 0.00 | 63 | 1033.4 |
| 20260505183727 | 74 | 13 | 3.0 | 3.0 | 0.00 | 0.00 | 0.00 | 64 | 1033.4 |
| 20260505183225 | 74 | 355 | 1.0 | 1.0 | 0.00 | 0.00 | 0.00 | 61 | 1033.4 |
| 20260505182721 | 76 | 5 | 0.0 | 0.0 | 0.00 | 0.00 | 0.00 | 63 | 1033.4 |
| 20260505182218 | 75 | 13 | 0.0 | 0.0 | 0.00 | 0.00 | 0.00 | 61 | 1033.7 |
| 20260505181713 | 73 | 358 | 0.0 | 0.0 | 0.00 | 0.00 | 0.00 | 63 | 1033.5 |
| 20260505181212 | 73 | 24 | 0.0 | 0.0 | 0.00 | 0.00 | 0.00 | 64 | 1033.7 |
| 20260505180708 | 74 | 307 | 3.0 | 4.0 | 0.00 | 0.00 | 0.00 | 66 | 1033.8 |
| 20260505180205 | 74 | 17 | 0.0 | 0.0 | 0.00 | 0.00 | 0.00 | 62 | 1033.7 |
| 20260505175701 | 73 | 12 | 0.0 | 0.0 | 0.00 | 0.00 | 0.00 | 65 | 1033.6 |
| 20260505175158 | 73 | 324 | 1.0 | 2.0 | 0.00 | 0.00 | 0.00 | 66 | 1033.7 |
| 20260505174654 | 73 | 344 | 2.0 | 3.0 | 0.00 | 0.00 | 0.00 | 66 | 1033.8 |
| 20260505174150 | 72 | 2 | 0.0 | 1.0 | 0.00 | 0.00 | 0.00 | 66 | 1034.2 |
| 20260505173646 | 72 | 16 | 2.0 | 3.0 | 0.00 | 0.00 | 0.00 | 64 | 1034.1 |
| 20260505173144 | 73 | 13 | 0.0 | 0.0 | 0.00 | 0.00 | 0.00 | 65 | 1034.2 |
| 20260505172641 | 73 | 318 | 2.0 | 2.0 | 0.00 | 0.00 | 0.00 | 66 | 1034.0 |
| 20260505172138 | 74 | 8 | 0.0 | 1.0 | 0.00 | 0.00 | 0.00 | 60 | 1034.3 |
| 20260505171637 | 74 | 24 | 0.0 | 1.0 | 0.00 | 0.00 | 0.00 | 58 | 1034.3 |
| 20260505171135 | 73 | 348 | 0.0 | 0.0 | 0.00 | 0.00 | 0.00 | 66 | 1034.1 |
| 20260505170632 | 73 | 343 | 0.0 | 2.0 | 0.00 | 0.00 | 0.00 | 63 | 1034.3 |
| 20260505170128 | 72 | 330 | 1.0 | 2.0 | 0.00 | 0.00 | 0.00 | 60 | 1034.3 |
| 20260505165623 | 71 | 13 | 1.0 | 2.0 | 0.00 | 0.00 | 0.00 | 67 | 1034.5 |
| 20260505165120 | 72 | 321 | 3.0 | 3.0 | 0.00 | 0.00 | 0.00 | 66 | 1034.6 |
| 20260505164615 | 72 | 354 | 2.0 | 2.0 | 0.00 | 0.00 | 0.00 | 65 | 1034.5 |
| 20260505164114 | 72 | 339 | 2.0 | 2.0 | 0.00 | 0.00 | 0.00 | 64 | 1034.3 |
| 20260505163612 | 72 | 17 | 0.0 | 0.0 | 0.00 | 0.00 | 0.00 | 66 | 1034.5 |
| 20260505163109 | 72 | 346 | 2.0 | 3.0 | 0.00 | 0.00 | 0.00 | 65 | 1034.8 |
| 20260505162606 | 72 | 25 | 2.0 | 2.0 | 0.00 | 0.00 | 0.00 | 63 | 1034.4 |
| 20260505162104 | 72 | 337 | 1.0 | 1.0 | 0.00 | 0.00 | 0.00 | 64 | 1034.7 |
| 20260505161601 | 71 | 1 | 0.0 | 1.0 | 0.00 | 0.00 | 0.00 | 66 | 1034.5 |
| 20260505161058 | 70 | 335 | 3.0 | 4.0 | 0.00 | 0.00 | 0.00 | 68 | 1034.4 |
| 20260505160555 | 70 | 345 | 1.0 | 2.0 | 0.00 | 0.00 | 0.00 | 68 | 1034.6 |
| 20260505153032 | 69 | 27 | 0.0 | 0.0 | 0.00 | 0.00 | 0.00 | 69 | 1034.8 |
| 20260505152529 | 70 | 18 | 0.0 | 0.0 | 0.00 | 0.00 | 0.00 | 70 | 1034.8 |
| 20260505152025 | 70 | 16 | 0.0 | 0.0 | 0.00 | 0.00 | 0.00 | 69 | 1034.6 |
| 20260505151520 | 70 | 356 | 0.0 | 1.0 | 0.00 | 0.00 | 0.00 | 73 | 1034.6 |
| 20260505151018 | 69 | 18 | 0.0 | 0.0 | 0.00 | 0.00 | 0.00 | 69 | 1034.8 |
| 20260505150514 | 69 | 17 | 1.0 | 1.0 | 0.00 | 0.00 | 0.00 | 70 | 1034.8 |
| 20260505140439 | 64 | 354 | 0.0 | 0.0 | 0.00 | 0.00 | 0.00 | 78 | 1035.0 |
| 20260505124852 | 57 | 96 | 0.0 | 0.0 | 0.00 | 0.00 | 0.00 | 90 | 1034.1 |
| 20260505124349 | 57 | 180 | 2.0 | 2.0 | 0.00 | 0.00 | 0.00 | 91 | 1033.8 |
| 20260505123845 | 56 | 178 | 0.0 | 0.0 | 0.00 | 0.00 | 0.00 | 92 | 1033.8 |
| 20260505123342 | 56 | 163 | 0.0 | 0.0 | 0.00 | 0.00 | 0.00 | 92 | 1033.6 |
| 20260505122837 | 55 | 178 | 1.0 | 1.0 | 0.00 | 0.00 | 0.00 | 93 | 1033.7 |
| 20260505122330 | 55 | 171 | 1.0 | 1.0 | 0.00 | 0.00 | 0.00 | 93 | 1033.7 |
| 20260505121826 | 54 | 179 | 1.0 | 2.0 | 0.00 | 0.00 | 0.00 | 93 | 1033.6 |
| 20260505121324 | 54 | 185 | 1.0 | 1.0 | 0.00 | 0.00 | 0.00 | 93 | 1033.5 |
| 20260505120819 | 54 | 173 | 0.0 | 0.0 | 0.00 | 0.00 | 0.00 | 93 | 1033.5 |
| 20260505120316 | 54 | 172 | 1.0 | 1.0 | 0.00 | 0.00 | 0.00 | 93 | 1033.6 |
| 20260505115814 | 54 | 182 | 2.0 | 2.0 | 0.00 | 0.00 | 0.00 | 93 | 1033.4 |
| 20260505115312 | 53 | 21 | 0.0 | 0.0 | 0.00 | 0.00 | 0.00 | 94 | 1033.4 |
| 20260505114810 | 53 | 18 | 0.0 | 0.0 | 0.00 | 0.00 | 0.00 | 93 | 1033.2 |
| 20260505114306 | 53 | 32 | 0.0 | 0.0 | 0.00 | 0.00 | 0.00 | 93 | 1033.1 |
| 20260505113803 | 53 | 39 | 0.0 | 0.0 | 0.00 | 0.00 | 0.00 | 93 | 1033.3 |
| 20260505113259 | 53 | 74 | 0.0 | 0.0 | 0.00 | 0.00 | 0.00 | 93 | 1033.2 |
| 20260505112754 | 53 | 42 | 0.0 | 0.0 | 0.00 | 0.00 | 0.00 | 93 | 1033.0 |
| 20260505112252 | 53 | 42 | 0.0 | 0.0 | 0.00 | 0.00 | 0.00 | 93 | 1033.0 |
| 20260505111753 | 53 | 42 | 0.0 | 0.0 | 0.00 | 0.00 | 0.00 | 92 | 1033.0 |
| 20260505111249 | 53 | 42 | 0.0 | 0.0 | 0.00 | 0.00 | 0.00 | 92 | 1032.8 |
| 20260505110745 | 53 | 44 | 0.0 | 0.0 | 0.00 | 0.00 | 0.00 | 92 | 1032.8 |
| 20260505110243 | 53 | 41 | 0.0 | 0.0 | 0.00 | 0.00 | 0.00 | 92 | 1033.1 |
| 20260505102218 | 54 | 181 | 0.0 | 0.0 | 0.00 | 0.00 | 0.00 | 92 | 1032.5 |
| 20260505101717 | 54 | 188 | 0.0 | 0.0 | 0.00 | 0.00 | 0.00 | 91 | 1032.6 |
| 20260505101212 | 55 | 187 | 0.0 | 0.0 | 0.00 | 0.00 | 0.00 | 90 | 1032.7 |
| 20260505100709 | 55 | 21 | 0.0 | 0.0 | 0.00 | 0.00 | 0.00 | 88 | 1032.6 |
| 20260505100206 | 55 | 21 | 0.0 | 0.0 | 0.00 | 0.00 | 0.00 | 88 | 1032.5 |
| 20260505095701 | 56 | 20 | 0.0 | 0.0 | 0.00 | 0.00 | 0.00 | 88 | 1032.6 |
| 20260505095200 | 56 | 19 | 0.0 | 0.0 | 0.00 | 0.00 | 0.00 | 88 | 1032.6 |
| 20260505094655 | 55 | 20 | 0.0 | 0.0 | 0.00 | 0.00 | 0.00 | 88 | 1032.7 |
| 20260505094151 | 55 | 19 | 0.0 | 0.0 | 0.00 | 0.00 | 0.00 | 88 | 1033.0 |
| 20260505093648 | 55 | 20 | 0.0 | 0.0 | 0.00 | 0.00 | 0.00 | 89 | 1032.9 |
| 20260505093145 | 55 | 20 | 0.0 | 0.0 | 0.00 | 0.00 | 0.00 | 89 | 1032.8 |
| 20260505092642 | 55 | 31 | 0.0 | 0.0 | 0.00 | 0.00 | 0.00 | 89 | 1033.1 |
| 20260505092141 | 55 | 31 | 0.0 | 0.0 | 0.00 | 0.00 | 0.00 | 88 | 1032.9 |
| 20260505091638 | 55 | 31 | 0.0 | 0.0 | 0.00 | 0.00 | 0.00 | 87 | 1032.9 |
| 20260505091136 | 56 | 31 | 0.0 | 0.0 | 0.00 | 0.00 | 0.00 | 87 | 1032.9 |
| 20260505090633 | 56 | 31 | 0.0 | 0.0 | 0.00 | 0.00 | 0.00 | 87 | 1033.1 |
| 20260505090131 | 56 | 31 | 0.0 | 0.0 | 0.00 | 0.00 | 0.00 | 87 | 1033.0 |
| 20260505085628 | 56 | 31 | 0.0 | 0.0 | 0.00 | 0.00 | 0.00 | 86 | 1032.8 |
| 20260505085126 | 56 | 31 | 0.0 | 0.0 | 0.00 | 0.00 | 0.00 | 86 | 1033.1 |
| 20260505084623 | 56 | 31 | 0.0 | 0.0 | 0.00 | 0.00 | 0.00 | 86 | 1033.3 |
| 20260505084122 | 56 | 31 | 0.0 | 0.0 | 0.00 | 0.00 | 0.00 | 86 | 1033.0 |
| 20260505083619 | 56 | 30 | 0.0 | 0.0 | 0.00 | 0.00 | 0.00 | 85 | 1033.1 |
| 20260505083115 | 56 | 30 | 0.0 | 0.0 | 0.00 | 0.00 | 0.00 | 85 | 1033.2 |
| 20260505082611 | 57 | 30 | 0.0 | 0.0 | 0.00 | 0.00 | 0.00 | 84 | 1033.1 |
| 20260505082109 | 57 | 32 | 0.0 | 0.0 | 0.00 | 0.00 | 0.00 | 84 | 1033.5 |
| 20260505081605 | 57 | 32 | 0.0 | 0.0 | 0.00 | 0.00 | 0.00 | 84 | 1033.3 |
| 20260505081102 | 57 | 34 | 0.0 | 0.0 | 0.00 | 0.00 | 0.00 | 83 | 1033.2 |
| 20260505080558 | 57 | 34 | 0.0 | 0.0 | 0.00 | 0.00 | 0.00 | 83 | 1033.3 |
| 20260505080055 | 57 | 34 | 0.0 | 0.0 | 0.00 | 0.00 | 0.00 | 83 | 1033.2 |
| 20260505075551 | 57 | 34 | 0.0 | 0.0 | 0.00 | 0.00 | 0.00 | 82 | 1033.3 |
| 20260505075048 | 57 | 34 | 0.0 | 0.0 | 0.00 | 0.00 | 0.00 | 82 | 1033.2 |
| 20260505074544 | 58 | 34 | 0.0 | 0.0 | 0.00 | 0.00 | 0.00 | 82 | 1033.3 |
| 20260505074042 | 58 | 34 | 0.0 | 0.0 | 0.00 | 0.00 | 0.00 | 80 | 1033.4 |
| 20260505073539 | 58 | 36 | 0.0 | 0.0 | 0.00 | 0.00 | 0.00 | 80 | 1033.6 |
| 20260505073038 | 58 | 16 | 0.0 | 0.0 | 0.00 | 0.00 | 0.00 | 80 | 1033.4 |
| 20260505072533 | 58 | 12 | 0.0 | 0.0 | 0.00 | 0.00 | 0.00 | 79 | 1033.5 |
| 20260505072030 | 58 | 13 | 0.0 | 0.0 | 0.00 | 0.00 | 0.00 | 79 | 1033.4 |
| 20260505071525 | 58 | 13 | 0.0 | 0.0 | 0.00 | 0.00 | 0.00 | 79 | 1033.4 |
| 20260505071024 | 58 | 278 | 0.0 | 0.0 | 0.00 | 0.00 | 0.00 | 80 | 1033.5 |
| 20260505070520 | 58 | 346 | 0.0 | 0.0 | 0.00 | 0.00 | 0.00 | 78 | 1033.4 |
| 20260505070016 | 58 | 346 | 0.0 | 0.0 | 0.00 | 0.00 | 0.00 | 80 | 1033.5 |